Location: Unspecified
(0.0000°N, 0.0000°E)
Time: 15:13:10
(UTC+00:00)

Courier 1B - Pass Details

Date: 09 February 2026
Orbit: 962 x 1208 km, 28.3° (Epoch: 16 March)

Event Time Altitude Azimuth Distance (km) Brightness Sun altitude
Exits shadow 04:01:29 12° 12° (NNE) 2,779 9.8 -32.0°
Maximum altitude 04:02:18 12° 19° (NNE) 2,752 9.8 -31.8°
Drops below altitude 10° 04:04:59 10° 42° (NE) 2,887 10.2 -31.1°
Sets 04:09:43 0° 71° (ENE) 3,779 11.3 -30.0°
